Location: Slanting_Bridge
(35.6330°N, 80.9830°W)
Time: 02:37:57
(UTC-05:00)

Amateur Radio Satellites - All Passes

Search period start: 28 February 2017 02:07
Search period end: 01 March 2017 02:07
Location: Slanting_Bridge, 35.6330°N, 80.9830°W

Satellite Date Start Highest point End Downlink Frequencies (MHz)
Time Altitude Azimuth
Oscar 19 28 Feb 02:15:19 02:20:22 61° 286° (WNW) 02:25:24 437.125/150
AO-85 28 Feb 02:31:47 02:34:40 16° 110° (ESE) 02:37:26 145.980
AO-7 28 Feb 02:42:28 02:48:20 21° 94° (E) 02:54:10 .
ITAMSAT 1 28 Feb 02:55:52 03:00:21 28° 97° (E) 03:04:47 435.822/435.867
MOZHAYETS 4 28 Feb 03:15:02 03:19:41 88° 256° (WSW) 03:24:22
ITUPSAT 1 28 Feb 03:16:36 03:20:47 30° 263° (W) 03:25:00 437.325
BEESAT 28 Feb 03:21:27 03:25:24 26° 264° (W) 03:29:23 436.000
Gurwin Techsat 1B 28 Feb 03:24:33 03:28:52 26° 292° (WNW) 03:33:10 435.225
KKS-1 28 Feb 03:25:14 03:28:59 28° 70° (ENE) 03:32:46 437.445
STARS 28 Feb 03:51:11 03:54:38 23° 69° (ENE) 03:58:07 437.465
RS-15 28 Feb 04:06:48 04:17:27 38° 255° (WSW) 04:27:43 29.354- 29.394
AO-85 28 Feb 04:10:24 04:14:48 43° 303° (WNW) 04:18:54 145.980
CUBESAT XI-V 28 Feb 04:22:29 04:27:08 74° 77° (ENE) 04:31:46 437.345
AO-7 28 Feb 04:33:25 04:41:41 73° 290° (WNW) 04:49:55 .
ITAMSAT 1 28 Feb 04:35:12 04:39:43 30° 291° (WNW) 04:44:13 435.822/435.867
M-CUBED/EXP-1 PRIME 28 Feb 04:53:01 04:56:16 83° 73° (ENE) 04:59:32 437.505
KKS-1 28 Feb 05:02:03 05:05:29 22° 264° (W) 05:08:57 437.445
BEESAT 3 28 Feb 05:08:35 05:12:15 42° 115° (ESE) 05:15:59 437.485
SO-50 28 Feb 05:23:32 05:25:09 12° 44° (NE) 05:26:46 436.795
STARS 28 Feb 05:27:11 05:30:50 26° 263° (W) 05:34:31 437.465
XW-2B 28 Feb 05:29:28 05:30:13 10° 92° (E) 05:30:57 145.730 - 145.750
XW-2C 28 Feb 05:37:03 05:39:05 14° 93° (E) 05:41:06 145.795 - 145.815
NUDT-PHONESAT 28 Feb 05:38:40 05:39:47 11° 92° (E) 05:40:54 437.300
Tancredo 1 28 Feb 05:38:44 05:40:46 16° 128° (SE) 05:42:47 437.200
BEESAT 2 28 Feb 05:53:30 05:57:19 55° 117° (ESE) 06:01:14 435.950
LilacSat-2 28 Feb 05:56:11 05:59:26 26° 96° (E) 06:02:38 437.200
STRAND 1 28 Feb 06:02:30 06:06:23 22° 67° (ENE) 06:10:18 437.568
CUTE-I 28 Feb 06:04:58 06:09:47 33° 97° (E) 06:14:33 437.470
AO-7 28 Feb 06:29:06 06:33:00 14° 309° (NW) 06:36:55 .
DOVE 4 28 Feb 06:34:10 06:39:02 89° 95° (E) 06:44:10 437.250
KAITUO 1B 28 Feb 06:39:04 06:42:50 78° 102° (ESE) 06:46:33 145.475/437.950
BEESAT 3 28 Feb 06:47:46 06:50:04 15° 311° (NW) 06:52:23 437.485
XW-2F 28 Feb 06:49:08 06:52:53 62° 284° (WNW) 06:56:35 145.980 - 146.000
ISS 28 Feb 06:55:44 06:58:59 67° 319° (NW) 07:02:17 437.550
XW-2D 28 Feb 06:55:48 06:59:28 46° 285° (WNW) 07:03:06 145.860 - 145.880
XW-2B 28 Feb 07:00:59 07:04:36 41° 286° (WNW) 07:08:09 145.730 - 145.750
SO-50 28 Feb 07:01:41 07:06:11 81° 242° (WSW) 07:10:38 436.795
XW-2C 28 Feb 07:09:57 07:13:21 31° 287° (WNW) 07:16:43 145.795 - 145.815
NUDT-PHONESAT 28 Feb 07:10:22 07:13:52 37° 286° (WNW) 07:17:19 437.300
Tancredo 1 28 Feb 07:13:41 07:16:46 39° 323° (NW) 07:19:51 437.200
CUTE 1.7 + AOD 2 28 Feb 07:28:16 07:32:06 33° 97° (E) 07:35:53 437.475
LilacSat-2 28 Feb 07:30:56 07:33:30 17° 291° (WNW) 07:36:03 437.200
XW-2A 28 Feb 07:33:11 07:36:37 62° 100° (E) 07:40:01 145.665 - 145.685
BEESAT 2 28 Feb 07:33:40 07:35:27 13° 313° (NW) 07:37:14 435.950
HO-68 28 Feb 07:38:03 07:44:58 50° 101° (E) 07:51:49 435.675
O/OREOS (USA 219) 28 Feb 07:38:54 07:42:44 26° 63° (ENE) 07:46:34 437.305
STRAND 1 28 Feb 07:40:31 07:45:16 38° 262° (W) 07:50:05 437.568
CUTE-I 28 Feb 07:45:09 07:49:39 28° 292° (WNW) 07:54:08 437.470
AAUSAT CUBESAT 2 28 Feb 07:59:35 08:02:52 23° 96° (E) 08:06:09 437.432
AO-73 28 Feb 08:15:26 08:18:13 16° 93° (E) 08:20:57 145.935
Oscar 11 28 Feb 08:18:22 08:20:40 14° 93° (E) 08:22:57 .
SEEDS 28 Feb 08:19:11 08:23:21 88° 288° (WNW) 08:27:31 437.485
CUBEBUG 2 28 Feb 08:19:14 08:23:56 60° 100° (E) 08:28:33 437.445
TIGRISAT 28 Feb 08:33:00 08:34:32 12° 64° (ENE) 08:36:04 435.000
UNISAT 6 28 Feb 08:33:12 08:35:12 13° 65° (ENE) 08:37:12 437.425
ISS 28 Feb 08:34:54 08:35:59 11° 337° (NNW) 08:37:04 437.550
UWE-3 28 Feb 08:49:50 08:54:31 81° 100° (E) 08:59:03 435.000/436.395/437.385
PRISM 28 Feb 08:57:17 09:01:17 59° 75° (ENE) 09:05:17 437.425
ZACube-1 28 Feb 09:03:35 09:08:07 66° 101° (ESE) 09:12:30 437.345
DELFI C3 28 Feb 09:04:43 09:06:36 13° 93° (E) 09:08:29 145.870
CUTE 1.7 + AOD 2 28 Feb 09:04:54 09:07:38 17° 292° (WNW) 09:10:20 437.475
O/OREOS (USA 219) 28 Feb 09:18:14 09:22:02 26° 258° (WSW) 09:25:50 437.305
HO-68 28 Feb 09:26:25 09:32:18 29° 297° (WNW) 09:38:11 435.675
AAUSAT CUBESAT 2 28 Feb 09:34:59 09:38:13 23° 290° (WNW) 09:41:26 437.432
FO-29 28 Feb 09:46:14 09:53:04 48° 69° (ENE) 10:00:25 435.910
AO-73 28 Feb 09:50:23 09:54:35 39° 287° (WNW) 09:58:40 145.935
Oscar 11 28 Feb 09:52:54 09:56:57 40° 287° (WNW) 10:00:58 .
CUBEBUG 2 28 Feb 09:57:53 09:59:57 13° 295° (WNW) 10:02:01 437.445
TIGRISAT 28 Feb 10:06:08 10:10:35 62° 260° (W) 10:15:10 435.000
UNISAT 6 28 Feb 10:06:55 10:11:20 56° 260° (W) 10:15:53 437.425
YUBILEINY 28 Feb 10:08:14 10:16:56 67° 92° (E) 10:25:37 435.215
AIST 2D 28 Feb 10:17:20 10:19:51 19° 71° (ENE) 10:22:24 435.315
LO-87 28 Feb 10:22:35 10:24:00 12° 93° (E) 10:25:24 145.935 - 145.965
EO-79 28 Feb 10:27:05 10:29:55 18° 68° (ENE) 10:32:46 145.935-145.965
DELFI C3 28 Feb 10:37:54 10:41:30 35° 287° (WNW) 10:45:05 145.870
NANOSAT C BR1 28 Feb 10:41:20 10:44:41 23° 70° (ENE) 10:48:04 145.865
ZACube-1 28 Feb 10:42:52 10:43:43 10° 296° (WNW) 10:44:36 437.345
POLYITAN 1 28 Feb 10:44:44 10:48:22 28° 71° (ENE) 10:52:02 437.675
ESTCUBE 1 28 Feb 10:47:15 10:49:34 14° 93° (E) 10:51:53 437.505/2401.250
QB50P2 28 Feb 10:47:40 10:51:28 33° 72° (ENE) 10:55:18 145.880/145.840
FO-29 28 Feb 11:31:59 11:38:11 31° 267° (W) 11:44:52 435.910
DUCHIFAT 1 28 Feb 11:46:20 11:50:29 61° 260° (W) 11:54:41 145.980
AIST 2D 28 Feb 11:50:13 11:52:56 20° 265° (W) 11:55:40 435.315
Oscar 19 28 Feb 11:52:24 11:55:23 16° 64° (ENE) 11:58:20 437.125/150
LO-87 28 Feb 11:54:16 11:57:31 32° 287° (WNW) 12:00:47 145.935 - 145.965
EO-79 28 Feb 12:01:35 12:05:23 33° 262° (W) 12:09:14 145.935-145.965
YUBILEINY 28 Feb 12:07:40 12:14:20 24° 290° (WNW) 12:21:03 435.215
50 SAT 28 Feb 12:08:49 12:11:30 20° 96° (E) 12:14:09 437.505
DX 1 28 Feb 12:14:10 12:17:00 17° 95° (E) 12:19:50 434.975-435.025
SPROUT 28 Feb 12:15:24 12:19:23 35° 98° (E) 12:23:19 437.525
NANOSAT C BR1 28 Feb 12:16:51 12:20:16 24° 264° (W) 12:23:43 145.865
UKube-1 28 Feb 12:20:01 12:22:08 13° 93° (E) 12:24:14 .
POLYITAN 1 28 Feb 12:21:00 12:24:07 20° 265° (W) 12:27:17 437.675
ESTCUBE 1 28 Feb 12:22:18 12:26:34 45° 287° (WNW) 12:30:49 437.505/2401.250
QB50P2 28 Feb 12:24:31 12:27:18 17° 266° (W) 12:30:06 145.880/145.840
BUGSAT 1 28 Feb 12:29:41 12:33:39 57° 259° (W) 12:37:43 437.445
VELOX 1 28 Feb 12:32:36 12:37:02 71° 102° (ESE) 12:41:26 145.980
AO-85 28 Feb 12:44:09 12:48:02 62° 59° (ENE) 12:52:00 145.980
Gurwin Techsat 1B 28 Feb 13:02:23 13:07:21 42° 71° (ENE) 13:12:20 435.225
ISS 28 Feb 13:25:59 13:29:03 35° 36° (NE) 13:32:06 437.550
Oscar 19 28 Feb 13:29:08 13:34:11 56° 259° (W) 13:39:15 437.125/150
BEESAT 3 28 Feb 13:29:35 13:31:14 12° 47° (NE) 13:32:53 437.485
AO-7 28 Feb 13:38:38 13:44:59 25° 58° (ENE) 13:51:19 .
50 SAT 28 Feb 13:42:05 13:44:27 17° 290° (WNW) 13:46:48 437.505
Tancredo 1 28 Feb 13:42:50 13:46:01 56° 40° (NE) 13:49:11 437.200
DX 1 28 Feb 13:49:17 13:53:15 35° 288° (WNW) 13:57:13 434.975-435.025
SPROUT 28 Feb 13:52:11 13:54:58 17° 292° (WNW) 13:57:47 437.525
UKube-1 28 Feb 13:54:14 13:58:20 43° 287° (WNW) 14:02:25 .
ITAMSAT 1 28 Feb 14:10:54 14:15:30 33° 69° (ENE) 14:20:08 435.822/435.867
BEESAT 2 28 Feb 14:14:56 14:17:20 15° 49° (NE) 14:19:44 435.950
PCSat 28 Feb 14:23:17 14:26:53 18° 105° (ESE) 14:30:31 145.827
Gurwin Techsat 1B 28 Feb 14:43:30 14:47:25 21° 266° (W) 14:51:20 435.225
ISS 28 Feb 15:03:00 15:05:18 18° 231° (SW) 15:07:36 437.550
BEESAT 3 28 Feb 15:05:14 15:09:12 60° 244° (WSW) 15:13:07 437.485
MOZHAYETS 4 28 Feb 15:13:32 15:17:24 26° 96° (E) 15:21:14
ITUPSAT 1 28 Feb 15:19:12 15:24:01 88° 100° (E) 15:28:47 437.325
Tancredo 1 28 Feb 15:21:07 15:21:52 11° 234° (SW) 15:22:38 437.200
NO-84 28 Feb 15:21:58 15:24:50 42° 128° (SE) 15:27:55 435.350 FM
BEESAT 28 Feb 15:23:24 15:28:12 82° 283° (WNW) 15:32:57 436.000
AO-7 28 Feb 15:28:40 15:36:59 70° 255° (WSW) 15:45:21 .
ITAMSAT 1 28 Feb 15:50:38 15:54:56 26° 264° (W) 15:59:15 435.822/435.867
BEESAT 2 28 Feb 15:51:28 15:55:21 45° 245° (WSW) 15:59:11 435.950
PCSat 28 Feb 16:04:34 16:09:49 51° 300° (WNW) 16:15:07 145.827
RS-15 28 Feb 16:12:05 16:23:13 50° 109° (ESE) 16:34:46 29.354- 29.394
CUBESAT XI-V 28 Feb 16:22:38 16:26:14 22° 95° (E) 16:29:49 437.345
MOZHAYETS 4 28 Feb 16:50:42 16:54:26 25° 291° (WNW) 16:58:08
KKS-1 28 Feb 16:54:31 16:59:02 86° 105° (ESE) 17:03:30 437.445
NO-84 28 Feb 17:00:39 17:02:41 16° 327° (NNW) 17:04:49 435.350 FM
KAITUO 1B 28 Feb 17:16:39 17:19:40 23° 71° (ENE) 17:22:41 145.475/437.950
STARS 28 Feb 17:18:24 17:22:50 68° 101° (ESE) 17:27:14 437.465
CUTE-I 28 Feb 17:23:48 17:28:44 40° 71° (ENE) 17:33:43 437.470
XW-2F 28 Feb 17:26:56 17:30:29 37° 74° (ENE) 17:34:03 145.980 - 146.000
XW-2D 28 Feb 17:33:41 17:37:23 49° 75° (ENE) 17:41:07 145.860 - 145.880
DOVE 4 28 Feb 17:37:13 17:41:16 60° 76° (ENE) 17:45:25 437.250
XW-2B 28 Feb 17:38:46 17:42:31 55° 75° (ENE) 17:46:18 145.730 - 145.750
NUDT-PHONESAT 28 Feb 17:46:17 17:49:58 56° 76° (ENE) 17:53:41 437.300
XW-2C 28 Feb 17:47:29 17:51:19 75° 77° (ENE) 17:55:11 145.795 - 145.815
CUBESAT XI-V 28 Feb 17:59:36 18:03:34 29° 289° (WNW) 18:07:31 437.345
XW-2A 28 Feb 18:03:23 18:04:59 13° 69° (ENE) 18:06:37 145.665 - 145.685
HO-68 28 Feb 18:04:17 18:10:07 28° 63° (ENE) 18:15:56 435.675
M-CUBED/EXP-1 PRIME 28 Feb 18:07:13 18:11:11 82° 288° (WNW) 18:15:27 437.505
LilacSat-2 28 Feb 18:08:23 18:12:10 53° 260° (W) 18:15:59 437.200
CUTE 1.7 + AOD 2 28 Feb 18:18:47 18:21:36 17° 68° (ENE) 18:24:25 437.475
RS-15 28 Feb 18:24:18 18:35:43 48° 310° (NW) 18:47:35 29.354- 29.394
AAUSAT CUBESAT 2 28 Feb 18:48:49 18:50:06 11° 66° (ENE) 18:51:22 437.432
KAITUO 1B 28 Feb 18:50:46 18:53:35 20° 265° (W) 18:56:25 145.475/437.950
STARS 28 Feb 18:58:16 18:58:34 10° 296° (WNW) 18:58:50 437.465
XW-2F 28 Feb 19:03:11 19:04:45 12° 268° (W) 19:06:20 145.980 - 146.000
CUTE-I 28 Feb 19:04:50 19:08:52 22° 265° (W) 19:12:57 437.470
SEEDS 28 Feb 19:07:38 19:11:36 41° 74° (ENE) 19:15:35 437.485
CUBEBUG 2 28 Feb 19:14:16 19:18:16 33° 72° (ENE) 19:22:24 437.445
XW-2A 28 Feb 19:34:32 19:37:28 27° 263° (W) 19:40:26 145.665 - 145.685
UWE-3 28 Feb 19:43:27 19:47:41 44° 73° (ENE) 19:52:03 435.000/436.395/437.385
HO-68 28 Feb 19:50:29 19:57:25 52° 259° (W) 20:04:23 435.675
CUTE 1.7 + AOD 2 28 Feb 19:53:15 19:57:09 34° 263° (W) 20:01:02 437.475
STRAND 1 28 Feb 19:53:30 19:58:41 89° 286° (WNW) 20:03:49 437.568
ZACube-1 28 Feb 19:56:08 20:00:11 35° 72° (ENE) 20:04:21 437.345
AAUSAT CUBESAT 2 28 Feb 20:21:01 20:25:04 51° 261° (W) 20:29:07 437.432
YUBILEINY 28 Feb 20:22:58 20:30:08 28° 71° (ENE) 20:37:14 435.215
JUGNU 28 Feb 20:35:47 20:39:08 16° 175° (S) 20:42:30 437.505
AO-73 28 Feb 20:41:53 20:46:19 75° 258° (WSW) 20:50:54 145.935
Oscar 11 28 Feb 20:43:56 20:48:18 81° 259° (W) 20:52:40 .
RS-15 28 Feb 20:44:57 20:52:31 18° 341° (NNW) 21:00:10 29.354- 29.394
SEEDS 28 Feb 20:45:21 20:47:26 13° 267° (W) 20:49:33 437.485
CUBEBUG 2 28 Feb 20:51:45 20:54:56 19° 267° (W) 20:58:12 437.445
SO-50 28 Feb 21:12:35 21:17:15 67° 117° (ESE) 21:21:51 436.795
DELFI C3 28 Feb 21:19:44 21:23:41 79° 77° (ENE) 21:27:38 145.870
UWE-3 28 Feb 21:21:50 21:24:21 15° 268° (W) 21:26:53 435.000/436.395/437.385
ZACube-1 28 Feb 21:33:27 21:36:32 18° 267° (W) 21:39:41 437.345
SRMSAT 28 Feb 21:43:45 21:45:42 12° 167° (SSE) 21:47:39 437.500
O/OREOS (USA 219) 28 Feb 21:47:43 21:52:01 50° 106° (ESE) 21:56:22 437.305
NO-84 28 Feb 21:58:35 22:00:49 14° 32° (NNE) 22:03:06 435.350 FM
TIGRISAT 28 Feb 22:00:46 22:05:03 34° 97° (E) 22:09:14 435.000
UNISAT 6 28 Feb 22:01:37 22:05:58 38° 98° (E) 22:10:15 437.425
PRISM 28 Feb 22:16:30 22:20:29 53° 285° (WNW) 22:24:28 437.425
YUBILEINY 28 Feb 22:18:53 22:27:18 57° 270° (W) 22:35:42 435.215
JUGNU 28 Feb 22:24:02 22:27:22 16° 185° (S) 22:30:43 437.505
LO-87 28 Feb 22:27:03 22:30:29 54° 76° (ENE) 22:33:58 145.935 - 145.965
FO-29 28 Feb 22:44:36 22:51:49 54° 98° (E) 22:58:14 435.910
SO-50 28 Feb 22:55:33 22:58:08 14° 314° (NW) 23:00:41 436.795
RS-15 28 Feb 23:04:50 23:12:24 17° 19° (NNE) 23:19:50 29.354- 29.394
SPROUT 28 Feb 23:06:35 23:09:35 19° 69° (ENE) 23:12:37 437.525
DX 1 28 Feb 23:08:57 23:09:52 11° 64° (ENE) 23:10:47 434.975-435.025
AIST 2D 28 Feb 23:17:35 23:20:49 32° 98° (E) 23:24:00 435.315
ESTCUBE 1 28 Feb 23:18:16 23:22:45 73° 258° (WSW) 23:27:16 437.505/2401.250
VELOX 1 28 Feb 23:26:51 23:30:58 42° 73° (ENE) 23:35:05 145.980
O/OREOS (USA 219) 28 Feb 23:29:22 23:31:43 14° 302° (WNW) 23:34:05 437.305
SRMSAT 28 Feb 23:30:26 23:34:05 17° 177° (S) 23:37:46 437.500
DUCHIFAT 1 28 Feb 23:33:38 23:37:11 25° 96° (E) 23:40:41 145.980
NO-84 28 Feb 23:34:50 23:38:58 85° 44° (NE) 23:43:21 435.350 FM
TIGRISAT 28 Feb 23:38:01 23:41:26 20° 292° (WNW) 23:44:49 435.000
UNISAT 6 28 Feb 23:39:07 23:42:20 19° 293° (WNW) 23:45:31 437.425
EO-79 28 Feb 23:48:38 23:52:47 46° 99° (E) 23:56:53 145.935-145.965
NANOSAT C BR1 01 Mar 00:03:00 00:07:15 65° 101° (E) 00:11:28 145.865
POLYITAN 1 01 Mar 00:07:19 00:11:38 81° 104° (ESE) 00:15:54 437.675
QB50P2 01 Mar 00:10:28 00:14:47 85° 281° (W) 00:19:02 145.880/145.840
50 SAT 01 Mar 00:11:52 00:15:21 76° 258° (WSW) 00:18:51 437.505
BUGSAT 1 01 Mar 00:14:34 00:18:06 25° 96° (E) 00:21:35 437.445
FO-29 01 Mar 00:30:21 00:36:16 27° 297° (WNW) 00:41:44 435.910
DX 1 01 Mar 00:41:14 00:45:30 61° 259° (W) 00:49:47 434.975-435.025
SPROUT 01 Mar 00:41:30 00:45:15 30° 263° (W) 00:49:04 437.525
UKube-1 01 Mar 00:45:10 00:49:28 79° 256° (WSW) 00:53:47 .
AIST 2D 01 Mar 00:52:17 00:53:42 12° 292° (WNW) 00:55:06 435.315
PCSat 01 Mar 00:55:08 01:00:34 67° 62° (ENE) 01:05:57 145.827
VELOX 1 01 Mar 01:05:12 01:07:34 14° 267° (W) 01:09:58 145.980
DUCHIFAT 1 01 Mar 01:09:20 01:12:42 23° 290° (WNW) 01:16:03 145.980
NO-84 01 Mar 01:15:25 01:16:13 10° 240° (WSW) 01:17:02 435.350 FM
RS-15 01 Mar 01:17:28 01:29:15 48° 50° (NE) 01:40:30 29.354- 29.394
SRMSAT 01 Mar 01:19:10 01:22:31 15° 187° (S) 01:25:52 437.500
Gurwin Techsat 1B 01 Mar 01:22:14 01:26:11 21° 95° (E) 01:30:07 435.225
EO-79 01 Mar 01:26:04 01:28:06 13° 294° (WNW) 01:30:06 145.935-145.965
Oscar 19 01 Mar 01:43:30 01:48:36 64° 102° (ESE) 01:53:41 437.125/150
BUGSAT 1 01 Mar 01:49:55 01:53:19 23° 290° (WNW) 01:56:41 437.445
